OBJECT K

基本信息
目录编号:
59809
目录名称:
OBJECT K
国际标识:
2024-092K
轨道中心:
EARTH
物体状态:
在轨
发射日期:
2024-05-16 UTC
国别:
俄罗斯(独联体) (CIS)
轨道信息
数据来源: 国际轨道数据
星历时间: 2026-07-13T15:59:26+0800
半长轴: 6831.426km
偏心率: 0.0007564
轨道倾角: 97.659°
近地点辐角: 65.026°
升交点赤经: 328.262°
平近点角: 295.177°
近地点: 448.121km
远地点: 458.457km
周期: 93.654分钟
每日圈数: 15.375731
详细信息
发射场:
PKMTR
轨道高度:
LEO
数据来源:
AOE Working Group
参考系:
TEME
时间系统:
UTC
历元类型:
SGP4
2D轨道图
3D轨道图
轨道高度分析图
轨道倾角分析图
轨道综合分析图
查看轨道综合分析图